TimeEST,TemperatureF,Dew PointF,Humidity,Sea Level PressureIn,VisibilityMPH,Wind Direction,Wind SpeedMPH,Gust SpeedMPH,PrecipitationIn,Events,Conditions,WindDirDegrees,DateUTC
12:00 AM,71.6,69.8,94,30.11,9.0,North,3.5,-,N/A,,Mostly Cloudy,360,2013-01-07 05:00:00
12:51 AM,71.6,69.8,94,30.10,9.0,NNE,4.6,-,0.00,,Overcast,20,2013-01-07 05:51:00
12:53 AM,71.1,70.0,96,30.10,9.0,NNE,4.6,-,0.00,,Overcast,30,2013-01-07 05:53:00
1:41 AM,69.8,69.8,100,30.10,8.0,NE,3.5,-,N/A,,Overcast,50,2013-01-07 06:41:00
1:53 AM,70.0,70.0,100,30.09,8.0,NE,3.5,-,N/A,,Mostly Cloudy,50,2013-01-07 06:53:00
2:53 AM,70.0,70.0,100,30.09,9.0,NE,3.5,-,N/A,,Overcast,50,2013-01-07 07:53:00
3:45 AM,69.8,69.8,100,30.08,9.0,ENE,4.6,-,N/A,,Overcast,70,2013-01-07 08:45:00
3:53 AM,70.0,70.0,100,30.08,9.0,East,5.8,-,N/A,,Overcast,80,2013-01-07 08:53:00
4:08 AM,69.8,69.8,100,30.08,9.0,ENE,4.6,-,N/A,,Overcast,60,2013-01-07 09:08:00
4:34 AM,69.8,69.8,100,30.08,9.0,ENE,5.8,-,N/A,,Mostly Cloudy,70,2013-01-07 09:34:00
4:44 AM,69.8,69.8,100,30.08,8.0,Calm,Calm,-,N/A,,Overcast,0,2013-01-07 09:44:00
4:53 AM,70.0,70.0,100,30.08,8.0,Calm,Calm,-,N/A,,Mostly Cloudy,0,2013-01-07 09:53:00
5:21 AM,69.8,69.8,100,30.08,5.0,Calm,Calm,-,0.00,Rain,Light Rain,0,2013-01-07 10:21:00
5:53 AM,70.0,70.0,100,30.09,7.0,Calm,Calm,-,0.00,Rain,Light Rain,0,2013-01-07 10:53:00
6:53 AM,70.0,70.0,100,30.11,10.0,East,6.9,-,0.00,,Overcast,80,2013-01-07 11:53:00
7:53 AM,70.0,69.1,97,30.12,9.0,East,5.8,-,N/A,,Overcast,80,2013-01-07 12:53:00
8:02 AM,69.8,69.8,100,30.13,9.0,ENE,4.6,-,N/A,,Overcast,70,2013-01-07 13:02:00
8:53 AM,71.1,70.0,96,30.14,10.0,ENE,6.9,-,N/A,,Overcast,70,2013-01-07 13:53:00
9:53 AM,73.9,69.1,85,30.15,10.0,ENE,6.9,-,N/A,,Mostly Cloudy,70,2013-01-07 14:53:00
10:53 AM,78.1,70.0,76,30.14,10.0,East,11.5,-,N/A,,Scattered Clouds,80,2013-01-07 15:53:00
11:53 AM,78.1,69.1,74,30.12,10.0,NE,9.2,-,N/A,,Mostly Cloudy,50,2013-01-07 16:53:00
12:09 PM,78.8,69.8,74,30.11,10.0,NE,12.7,-,N/A,,Mostly Cloudy,40,2013-01-07 17:09:00
12:53 PM,80.1,69.1,69,30.08,10.0,ENE,9.2,-,N/A,,Overcast,70,2013-01-07 17:53:00
1:12 PM,78.8,69.8,74,30.08,10.0,ENE,13.8,-,N/A,,Mostly Cloudy,60,2013-01-07 18:12:00
1:53 PM,78.1,68.0,71,30.07,10.0,East,9.2,-,N/A,,Partly Cloudy,80,2013-01-07 18:53:00
2:53 PM,80.1,66.9,64,30.08,10.0,ENE,9.2,-,N/A,,Mostly Cloudy,60,2013-01-07 19:53:00
3:36 PM,78.8,66.2,65,30.07,10.0,ENE,11.5,-,N/A,,Scattered Clouds,70,2013-01-07 20:36:00
3:53 PM,79.0,66.9,66,30.08,10.0,NE,12.7,-,N/A,,Partly Cloudy,50,2013-01-07 20:53:00
4:53 PM,77.0,66.9,71,30.08,10.0,NE,11.5,-,N/A,,Clear,40,2013-01-07 21:53:00
5:53 PM,73.9,66.9,79,30.10,10.0,NE,9.2,-,N/A,,Scattered Clouds,50,2013-01-07 22:53:00
6:34 PM,73.4,66.2,78,30.12,10.0,NE,9.2,-,N/A,,Mostly Cloudy,50,2013-01-07 23:34:00
6:46 PM,73.4,66.2,78,30.12,10.0,NE,11.5,-,N/A,,Scattered Clouds,50,2013-01-07 23:46:00
6:53 PM,73.0,66.9,81,30.12,10.0,ENE,10.4,-,N/A,,Partly Cloudy,60,2013-01-07 23:53:00
7:53 PM,71.1,66.9,87,30.13,10.0,ENE,9.2,-,N/A,,Clear,60,2013-01-08 00:53:00
8:53 PM,70.0,66.9,90,30.13,10.0,NE,9.2,-,N/A,,Clear,50,2013-01-08 01:53:00
9:53 PM,69.1,66.9,93,30.13,10.0,NE,8.1,-,N/A,,Clear,50,2013-01-08 02:53:00
10:53 PM,68.0,66.9,96,30.12,10.0,NE,8.1,-,N/A,,Clear,50,2013-01-08 03:53:00
11:25 PM,68.0,66.2,94,30.12,9.0,NE,10.4,-,N/A,,Scattered Clouds,50,2013-01-08 04:25:00
11:53 PM,69.1,66.9,93,30.12,10.0,ENE,12.7,-,N/A,,Overcast,60,2013-01-08 04:53:00